Time,TemperatureF,DewpointF,PressureIn,WindDirection,WindDirectionDegrees,WindSpeedMPH,WindSpeedGustMPH,Humidity,HourlyPrecipIn,Conditions,Clouds,dailyrainin,SolarRadiationWatts/m^2,SoftwareType,DateUTC
2013-06-19 00:02:00,63.5,56.5,30.07,SSW,192,1.9,5.0,78,0.00,CLR,,0.00,0.0,WeatherDisplay:10.37,2013-06-19 05:02:00,
2013-06-19 00:07:00,63.6,56.6,30.07,SSE,158,2.7,5.0,78,0.00,CLR,,0.00,0.0,WeatherDisplay:10.37,2013-06-19 05:07:00,
2013-06-19 00:12:00,63.9,56.5,30.07,South,181,2.2,4.0,77,0.00,CLR,,0.00,0.0,WeatherDisplay:10.37,2013-06-19 05:12:00,
2013-06-19 00:17:00,63.9,56.5,30.08,South,181,0.8,3.5,77,0.00,CLR,,0.00,0.0,WeatherDisplay:10.37,2013-06-19 05:17:00,
2013-06-19 00:22:00,63.7,56.7,30.07,South,175,1.2,3.0,78,0.00,CLR,,0.00,0.0,WeatherDisplay:10.37,2013-06-19 05:22:00,
2013-06-19 00:27:00,63.6,56.6,30.08,South,169,1.1,3.5,78,0.00,CLR,,0.00,0.0,WeatherDisplay:10.37,2013-06-19 05:27:00,
2013-06-19 00:32:00,63.4,56.8,30.08,South,169,3.0,4.0,79,0.00,CLR,,0.00,0.0,WeatherDisplay:10.37,2013-06-19 05:32:00,
2013-06-19 00:37:00,63.3,56.7,30.07,South,172,1.9,4.0,79,0.00,CLR,,0.00,0.0,WeatherDisplay:10.37,2013-06-19 05:37:00,
2013-06-19 00:42:00,63.3,56.3,30.08,SSE,165,2.4,4.0,78,0.00,CLR,,0.00,0.0,WeatherDisplay:10.37,2013-06-19 05:42:00,
2013-06-19 00:47:00,63.2,56.6,30.08,SSE,167,0.1,2.3,79,0.00,CLR,,0.00,0.0,WeatherDisplay:10.37,2013-06-19 05:47:00,
2013-06-19 00:52:00,63.1,56.5,30.08,South,177,2.6,4.0,79,0.00,CLR,,0.00,0.0,WeatherDisplay:10.37,2013-06-19 05:52:00,
2013-06-19 00:57:00,63.0,56.0,30.08,South,180,1.0,2.3,78,0.00,CLR,,0.00,0.0,WeatherDisplay:10.37,2013-06-19 05:57:00,
2013-06-19 01:02:00,63.0,56.4,30.08,South,180,0.3,2.3,79,0.00,CLR,,0.00,0.0,WeatherDisplay:10.37,2013-06-19 06:02:00,
2013-06-19 01:07:00,62.7,56.1,30.08,South,180,1.3,3.5,79,0.00,CLR,,0.00,0.0,WeatherDisplay:10.37,2013-06-19 06:07:00,
2013-06-19 01:12:00,62.7,56.1,30.08,South,180,0.2,2.0,79,0.00,CLR,,0.00,0.0,WeatherDisplay:10.37,2013-06-19 06:12:00,
2013-06-19 01:17:00,62.6,56.3,30.08,South,181,0.2,1.2,80,0.00,CLR,,0.00,0.0,WeatherDisplay:10.37,2013-06-19 06:17:00,
2013-06-19 01:22:00,62.2,56.0,30.08,South,182,0.3,2.3,80,0.00,CLR,,0.00,0.0,WeatherDisplay:10.37,2013-06-19 06:22:00,
2013-06-19 01:27:00,61.8,56.2,30.08,South,182,0.0,0.0,82,0.00,CLR,,0.00,0.0,WeatherDisplay:10.37,2013-06-19 06:27:00,
2013-06-19 01:32:00,61.6,56.0,30.08,South,182,0.0,0.0,82,0.00,CLR,,0.00,0.0,WeatherDisplay:10.37,2013-06-19 06:32:00,
2013-06-19 01:37:00,61.4,56.2,30.08,South,182,0.0,0.0,83,0.00,CLR,,0.00,0.0,WeatherDisplay:10.37,2013-06-19 06:37:00,
2013-06-19 01:42:00,61.2,56.0,30.07,South,182,0.5,2.0,83,0.00,CLR,,0.00,0.0,WeatherDisplay:10.37,2013-06-19 06:42:00,
2013-06-19 01:47:00,61.1,56.2,30.07,South,182,0.0,0.0,84,0.00,CLR,,0.00,0.0,WeatherDisplay:10.37,2013-06-19 06:47:00,
2013-06-19 01:52:00,61.1,55.9,30.07,South,182,0.0,0.0,83,0.00,CLR,,0.00,0.0,WeatherDisplay:10.37,2013-06-19 06:52:00,
2013-06-19 01:57:00,60.8,55.9,30.07,South,182,0.0,0.0,84,0.00,CLR,,0.00,0.0,WeatherDisplay:10.37,2013-06-19 06:57:00,
2013-06-19 02:02:00,60.7,55.8,30.07,South,182,0.0,0.0,84,0.00,CLR,,0.00,0.0,WeatherDisplay:10.37,2013-06-19 07:02:00,
2013-06-19 02:07:00,60.7,55.8,30.07,South,182,0.0,0.0,84,0.00,CLR,,0.00,0.0,WeatherDisplay:10.37,2013-06-19 07:07:00,
2013-06-19 02:12:00,60.6,55.7,30.07,South,182,0.0,0.0,84,0.00,CLR,,0.00,0.0,WeatherDisplay:10.37,2013-06-19 07:12:00,
2013-06-19 02:17:00,60.4,55.9,30.07,South,182,0.0,0.0,85,0.00,CLR,,0.00,0.0,WeatherDisplay:10.37,2013-06-19 07:17:00,
2013-06-19 02:22:00,60.3,55.4,30.07,South,182,0.0,0.0,84,0.00,CLR,,0.00,0.0,WeatherDisplay:10.37,2013-06-19 07:22:00,
2013-06-19 02:27:00,60.1,55.6,30.07,South,182,0.0,1.2,85,0.00,CLR,,0.00,0.0,WeatherDisplay:10.37,2013-06-19 07:27:00,
2013-06-19 02:32:00,60.0,55.8,30.07,South,182,0.0,0.0,86,0.00,CLR,,0.00,0.0,WeatherDisplay:10.37,2013-06-19 07:32:00,
2013-06-19 02:37:00,60.0,55.8,30.07,South,182,0.8,2.3,86,0.00,CLR,,0.00,0.0,WeatherDisplay:10.37,2013-06-19 07:37:00,
2013-06-19 02:42:00,60.1,55.9,30.07,South,182,0.2,1.2,86,0.00,CLR,,0.00,0.0,WeatherDisplay:10.37,2013-06-19 07:42:00,
2013-06-19 02:47:00,60.3,56.1,30.07,South,181,0.0,0.0,86,0.00,CLR,,0.00,0.0,WeatherDisplay:10.37,2013-06-19 07:47:00,
2013-06-19 02:52:00,60.1,55.9,30.07,South,182,0.0,0.0,86,0.00,CLR,,0.00,0.0,WeatherDisplay:10.37,2013-06-19 07:52:00,
2013-06-19 02:57:00,60.0,55.8,30.06,South,181,0.0,0.0,86,0.00,CLR,,0.00,0.0,WeatherDisplay:10.37,2013-06-19 07:57:00,
2013-06-19 03:02:00,59.8,55.9,30.06,South,181,0.0,0.0,87,0.00,CLR,,0.00,0.0,WeatherDisplay:10.37,2013-06-19 08:02:00,
2013-06-19 03:07:00,59.6,55.7,30.06,South,182,0.0,0.0,87,0.00,CLR,,0.00,0.0,WeatherDisplay:10.37,2013-06-19 08:07:00,
2013-06-19 03:12:00,59.6,55.7,30.06,South,181,0.0,0.0,87,0.00,CLR,,0.00,0.0,WeatherDisplay:10.37,2013-06-19 08:12:00,
2013-06-19 03:17:00,59.4,55.8,30.06,South,181,0.0,0.0,88,0.00,CLR,,0.00,0.0,WeatherDisplay:10.37,2013-06-19 08:17:00,
2013-06-19 03:22:00,59.5,55.6,30.07,South,182,0.0,0.0,87,0.00,CLR,,0.00,0.0,WeatherDisplay:10.37,2013-06-19 08:22:00,
2013-06-19 03:27:00,59.4,55.8,30.07,South,182,0.0,0.0,88,0.00,CLR,,0.00,0.0,WeatherDisplay:10.37,2013-06-19 08:27:00,
2013-06-19 03:32:00,59.2,55.6,30.07,South,182,0.0,0.0,88,0.00,CLR,,0.00,0.0,WeatherDisplay:10.37,2013-06-19 08:32:00,
2013-06-19 03:37:00,59.0,55.8,30.07,South,182,0.0,0.0,89,0.00,CLR,,0.00,0.0,WeatherDisplay:10.37,2013-06-19 08:37:00,
2013-06-19 03:42:00,59.1,55.9,30.07,South,182,0.0,1.0,89,0.00,CLR,,0.00,0.0,WeatherDisplay:10.37,2013-06-19 08:42:00,
2013-06-19 03:47:00,59.3,55.7,30.07,South,182,0.0,1.0,88,0.00,CLR,,0.00,0.0,WeatherDisplay:10.37,2013-06-19 08:47:00,
2013-06-19 03:52:00,59.5,55.9,30.07,South,182,0.0,0.0,88,0.00,CLR,,0.00,0.0,WeatherDisplay:10.37,2013-06-19 08:52:00,
2013-06-19 03:57:00,59.7,56.1,30.06,South,182,0.0,0.0,88,0.00,CLR,,0.00,0.0,WeatherDisplay:10.37,2013-06-19 08:57:00,
2013-06-19 04:02:00,59.8,56.2,30.06,South,182,0.0,0.0,88,0.00,CLR,,0.00,0.0,WeatherDisplay:10.37,2013-06-19 09:02:00,
2013-06-19 04:07:00,59.6,56.0,30.06,South,182,0.0,1.2,88,0.00,CLR,,0.00,0.0,WeatherDisplay:10.37,2013-06-19 09:07:00,
2013-06-19 04:12:00,59.5,55.9,30.06,South,182,0.0,0.0,88,0.00,CLR,,0.00,0.0,WeatherDisplay:10.37,2013-06-19 09:12:00,
2013-06-19 04:17:00,59.5,55.9,30.06,South,182,0.0,0.0,88,0.00,CLR,,0.00,0.0,WeatherDisplay:10.37,2013-06-19 09:17:00,
2013-06-19 04:22:00,59.5,55.9,30.05,South,182,0.0,0.0,88,0.00,CLR,,0.00,0.0,WeatherDisplay:10.37,2013-06-19 09:22:00,
2013-06-19 04:27:00,59.4,55.8,30.06,South,182,0.0,0.0,88,0.00,CLR,,0.00,0.0,WeatherDisplay:10.37,2013-06-19 09:27:00,
2013-06-19 04:32:00,59.3,55.7,30.06,South,182,0.0,1.0,88,0.00,CLR,,0.00,0.0,WeatherDisplay:10.37,2013-06-19 09:32:00,
2013-06-19 04:37:00,59.1,55.5,30.06,South,182,0.0,0.0,88,0.00,CLR,,0.00,0.0,WeatherDisplay:10.37,2013-06-19 09:37:00,
2013-06-19 04:42:00,58.9,55.7,30.06,South,182,0.0,0.0,89,0.00,CLR,,0.00,0.0,WeatherDisplay:10.37,2013-06-19 09:42:00,
2013-06-19 04:47:00,58.4,55.5,30.07,South,182,0.0,0.0,90,0.00,CLR,,0.00,0.0,WeatherDisplay:10.37,2013-06-19 09:47:00,
2013-06-19 04:52:00,58.3,55.7,30.07,South,182,0.0,0.0,91,0.00,CLR,,0.00,0.0,WeatherDisplay:10.37,2013-06-19 09:52:00,
2013-06-19 04:57:00,58.1,55.5,30.06,South,182,0.0,0.0,91,0.00,CLR,,0.00,0.0,WeatherDisplay:10.37,2013-06-19 09:57:00,
2013-06-19 05:02:00,58.0,55.4,30.07,South,182,0.0,0.0,91,0.00,CLR,,0.00,0.0,WeatherDisplay:10.37,2013-06-19 10:02:00,
2013-06-19 05:07:00,57.8,55.5,30.07,South,182,0.0,0.0,92,0.00,CLR,,0.00,0.0,WeatherDisplay:10.37,2013-06-19 10:07:00,
2013-06-19 05:12:00,57.9,55.9,30.07,South,182,0.0,0.0,93,0.00,CLR,,0.00,0.0,WeatherDisplay:10.37,2013-06-19 10:12:00,
2013-06-19 05:17:00,57.8,55.5,30.07,South,182,0.0,0.0,92,0.00,CLR,,0.00,0.0,WeatherDisplay:10.37,2013-06-19 10:17:00,
2013-06-19 05:22:00,57.9,55.6,30.07,South,182,0.0,0.0,92,0.00,CLR,,0.00,0.0,WeatherDisplay:10.37,2013-06-19 10:22:00,
2013-06-19 05:27:00,57.9,55.6,30.07,South,182,0.0,0.0,92,0.00,CLR,,0.00,5.0,WeatherDisplay:10.37,2013-06-19 10:27:00,
2013-06-19 05:32:00,58.2,55.9,30.07,South,182,0.0,0.0,92,0.00,CLR,,0.00,7.0,WeatherDisplay:10.37,2013-06-19 10:32:00,
2013-06-19 05:37:00,58.4,56.1,30.08,South,182,0.0,0.0,92,0.00,CLR,,0.00,11.0,WeatherDisplay:10.37,2013-06-19 10:37:00,
2013-06-19 05:42:00,58.5,56.2,30.08,South,182,0.0,0.0,92,0.00,CLR,,0.00,14.0,WeatherDisplay:10.37,2013-06-19 10:42:00,
2013-06-19 05:47:00,58.7,56.4,30.08,South,182,0.0,0.0,92,0.00,CLR,,0.00,18.0,WeatherDisplay:10.37,2013-06-19 10:47:00,
2013-06-19 05:52:00,58.6,56.3,30.08,South,182,0.0,0.0,92,0.00,CLR,,0.00,25.0,WeatherDisplay:10.37,2013-06-19 10:52:00,
2013-06-19 05:57:00,58.9,56.6,30.08,South,182,0.0,0.0,92,0.00,CLR,,0.00,32.0,WeatherDisplay:10.37,2013-06-19 10:57:00,
2013-06-19 06:02:00,59.1,56.8,30.08,South,182,0.0,0.0,92,0.00,CLR,,0.00,35.0,WeatherDisplay:10.37,2013-06-19 11:02:00,
2013-06-19 06:07:00,59.4,56.8,30.08,South,182,0.2,1.2,91,0.00,CLR,,0.00,35.0,WeatherDisplay:10.37,2013-06-19 11:07:00,
2013-06-19 06:12:00,59.5,56.9,30.08,South,182,0.0,1.0,91,0.00,CLR,,0.00,37.0,WeatherDisplay:10.37,2013-06-19 11:12:00,
2013-06-19 06:17:00,59.6,57.0,30.08,South,182,0.0,1.2,91,0.00,CLR,,0.00,30.0,WeatherDisplay:10.37,2013-06-19 11:17:00,
2013-06-19 06:22:00,59.7,56.8,30.08,South,182,0.5,3.5,90,0.00,CLR,,0.00,30.0,WeatherDisplay:10.37,2013-06-19 11:22:00,
2013-06-19 06:27:00,59.6,56.7,30.08,South,182,0.0,1.2,90,0.00,CLR,,0.00,49.0,WeatherDisplay:10.37,2013-06-19 11:27:00,
2013-06-19 06:32:00,59.9,57.0,30.08,South,182,1.1,3.0,90,0.00,CLR,,0.00,40.0,WeatherDisplay:10.37,2013-06-19 11:32:00,
2013-06-19 06:37:00,59.9,57.0,30.08,South,183,0.1,2.3,90,0.00,CLR,,0.00,70.0,WeatherDisplay:10.37,2013-06-19 11:37:00,
2013-06-19 06:42:00,60.5,57.2,30.08,South,189,3.3,5.0,89,0.00,CLR,,0.00,104.0,WeatherDisplay:10.37,2013-06-19 11:42:00,
2013-06-19 06:47:00,61.0,57.4,30.08,South,174,0.9,3.5,88,0.00,CLR,,0.00,116.0,WeatherDisplay:10.37,2013-06-19 11:47:00,
2013-06-19 06:52:00,61.4,57.8,30.08,South,182,1.5,4.0,88,0.00,CLR,,0.00,130.0,WeatherDisplay:10.37,2013-06-19 11:52:00,
2013-06-19 06:57:00,61.6,57.7,30.08,SSE,158,1.6,4.0,87,0.00,CLR,,0.00,148.0,WeatherDisplay:10.37,2013-06-19 11:57:00,
2013-06-19 07:02:00,61.8,57.9,30.08,South,173,1.4,3.0,87,0.00,CLR,,0.00,163.0,WeatherDisplay:10.37,2013-06-19 12:02:00,
2013-06-19 07:07:00,62.0,58.1,30.08,SSE,155,1.2,3.5,87,0.00,CLR,,0.00,167.0,WeatherDisplay:10.37,2013-06-19 12:07:00,
2013-06-19 07:12:00,62.3,58.4,30.08,SSE,162,2.3,5.8,87,0.00,CLR,,0.00,192.0,WeatherDisplay:10.37,2013-06-19 12:12:00,
2013-06-19 07:17:00,62.7,58.5,30.08,SSW,206,1.3,3.5,86,0.00,CLR,,0.00,200.0,WeatherDisplay:10.37,2013-06-19 12:17:00,
2013-06-19 07:22:00,63.1,58.8,30.08,South,191,1.5,7.0,86,0.00,CLR,,0.00,213.0,WeatherDisplay:10.37,2013-06-19 12:22:00,
2013-06-19 07:27:00,63.4,58.8,30.07,South,189,2.3,5.0,85,0.00,CLR,,0.00,229.0,WeatherDisplay:10.37,2013-06-19 12:27:00,
2013-06-19 07:32:00,63.6,59.0,30.07,SSE,151,2.9,6.9,85,0.00,CLR,,0.00,241.0,WeatherDisplay:10.37,2013-06-19 12:32:00,
2013-06-19 07:37:00,63.9,59.3,30.07,ESE,122,2.6,5.0,85,0.00,CLR,,0.00,257.0,WeatherDisplay:10.37,2013-06-19 12:37:00,
2013-06-19 07:42:00,64.4,59.5,30.07,SSE,148,0.9,4.6,84,0.00,CLR,,0.00,285.0,WeatherDisplay:10.37,2013-06-19 12:42:00,
2013-06-19 07:47:00,64.6,59.7,30.07,South,180,2.2,3.5,84,0.00,CLR,,0.00,102.0,WeatherDisplay:10.37,2013-06-19 12:47:00,
2013-06-19 07:52:00,64.5,59.6,30.07,SSW,193,1.0,8.1,84,0.00,CLR,,0.00,130.0,WeatherDisplay:10.37,2013-06-19 12:52:00,
2013-06-19 07:57:00,64.9,59.9,30.07,South,186,0.1,1.2,84,0.00,CLR,,0.00,172.0,WeatherDisplay:10.37,2013-06-19 12:57:00,
2013-06-19 08:02:00,65.4,60.1,30.08,South,182,1.3,3.5,83,0.00,CLR,,0.00,353.0,WeatherDisplay:10.37,2013-06-19 13:02:00,
2013-06-19 08:07:00,65.9,60.2,30.08,South,174,3.0,6.0,82,0.00,CLR,,0.00,155.0,WeatherDisplay:10.37,2013-06-19 13:07:00,
2013-06-19 08:12:00,66.4,60.7,30.08,South,175,0.9,3.5,82,0.00,CLR,,0.00,364.0,WeatherDisplay:10.37,2013-06-19 13:12:00,
2013-06-19 08:17:00,67.0,61.0,30.07,South,175,0.3,1.2,81,0.00,CLR,,0.00,373.0,WeatherDisplay:10.37,2013-06-19 13:17:00,
2013-06-19 08:22:00,67.6,61.2,30.08,South,186,2.7,5.0,80,0.00,CLR,,0.00,410.0,WeatherDisplay:10.37,2013-06-19 13:22:00,
2013-06-19 08:27:00,68.2,61.4,30.07,South,179,1.1,3.5,79,0.00,CLR,,0.00,455.0,WeatherDisplay:10.37,2013-06-19 13:27:00,
2013-06-19 08:32:00,69.0,61.9,30.07,SSW,192,1.9,4.6,78,0.00,CLR,,0.00,452.0,WeatherDisplay:10.37,2013-06-19 13:32:00,
2013-06-19 08:37:00,69.6,61.3,30.07,SSE,165,3.7,5.0,75,0.00,CLR,,0.00,496.0,WeatherDisplay:10.37,2013-06-19 13:37:00,
2013-06-19 08:42:00,70.2,61.5,30.07,South,189,5.0,7.0,74,0.00,CLR,,0.00,584.0,WeatherDisplay:10.37,2013-06-19 13:42:00,
2013-06-19 08:47:00,70.6,61.5,30.08,SSE,155,1.6,3.5,73,0.00,CLR,,0.00,272.0,WeatherDisplay:10.37,2013-06-19 13:47:00,
2013-06-19 08:52:00,70.7,62.0,30.08,South,175,1.5,3.5,74,0.00,CLR,,0.00,271.0,WeatherDisplay:10.37,2013-06-19 13:52:00,
2013-06-19 08:57:00,70.5,61.4,30.08,ESE,112,1.8,5.8,73,0.00,CLR,,0.00,255.0,WeatherDisplay:10.37,2013-06-19 13:57:00,
2013-06-19 09:02:00,70.5,61.8,30.08,South,191,2.9,5.0,74,0.00,CLR,,0.00,223.0,WeatherDisplay:10.37,2013-06-19 14:02:00,
2013-06-19 09:07:00,70.3,61.2,30.08,SSW,201,0.8,3.0,73,0.00,CLR,,0.00,200.0,WeatherDisplay:10.37,2013-06-19 14:07:00,
2013-06-19 09:12:00,70.5,62.2,30.08,SSW,202,0.4,1.2,75,0.00,CLR,,0.00,193.0,WeatherDisplay:10.37,2013-06-19 14:12:00,
2013-06-19 09:17:00,70.4,61.7,30.08,SSE,167,4.7,8.1,74,0.00,CLR,,0.00,229.0,WeatherDisplay:10.37,2013-06-19 14:17:00,
2013-06-19 09:22:00,70.5,61.4,30.08,South,174,2.8,6.0,73,0.00,CLR,,0.00,248.0,WeatherDisplay:10.37,2013-06-19 14:22:00,
2013-06-19 09:27:00,70.4,61.3,30.07,SSE,165,3.8,7.0,73,0.00,CLR,,0.00,276.0,WeatherDisplay:10.37,2013-06-19 14:27:00,
2013-06-19 09:32:00,70.5,61.4,30.08,SSW,195,2.4,4.0,73,0.00,CLR,,0.00,343.0,WeatherDisplay:10.37,2013-06-19 14:32:00,
2013-06-19 09:37:00,71.0,61.9,30.07,South,190,3.1,6.0,73,0.00,CLR,,0.00,311.0,WeatherDisplay:10.37,2013-06-19 14:37:00,
2013-06-19 09:42:00,71.2,62.1,30.08,SSW,200,3.7,6.9,73,0.00,CLR,,0.00,348.0,WeatherDisplay:10.37,2013-06-19 14:42:00,
2013-06-19 09:47:00,71.2,62.1,30.08,South,189,3.5,6.0,73,0.00,CLR,,0.00,353.0,WeatherDisplay:10.37,2013-06-19 14:47:00,
2013-06-19 09:52:00,71.4,61.9,30.07,SSW,197,2.8,9.2,72,0.00,CLR,,0.00,302.0,WeatherDisplay:10.37,2013-06-19 14:52:00,
2013-06-19 09:57:00,71.4,61.9,30.07,South,186,2.2,4.0,72,0.00,CLR,,0.00,320.0,WeatherDisplay:10.37,2013-06-19 14:57:00,
2013-06-19 10:02:00,71.3,62.2,30.07,South,180,1.3,3.5,73,0.00,OVC,,0.00,339.0,WeatherDisplay:10.37,2013-06-19 15:02:00,
2013-06-19 10:07:00,71.3,61.4,30.07,SSE,166,3.5,11.5,71,0.00,OVC,,0.00,271.0,WeatherDisplay:10.37,2013-06-19 15:07:00,
2013-06-19 10:12:00,71.0,61.5,30.07,South,172,3.2,6.0,72,0.00,OVC,,0.00,292.0,WeatherDisplay:10.37,2013-06-19 15:12:00,
2013-06-19 10:17:00,71.7,62.2,30.07,South,174,4.2,11.5,72,0.00,OVC,,0.00,842.0,WeatherDisplay:10.37,2013-06-19 15:17:00,
2013-06-19 10:22:00,72.6,61.8,30.07,South,185,2.7,5.0,69,0.00,OVC,,0.00,369.0,WeatherDisplay:10.37,2013-06-19 15:22:00,
2013-06-19 10:27:00,73.5,62.3,30.07,South,186,3.5,7.0,68,0.00,OVC,,0.00,877.0,WeatherDisplay:10.37,2013-06-19 15:27:00,
2013-06-19 10:32:00,74.1,62.4,30.07,South,182,3.4,6.0,67,0.00,OVC,,0.00,933.0,WeatherDisplay:10.37,2013-06-19 15:32:00,
2013-06-19 10:37:00,74.7,63.4,30.07,SSE,167,1.9,4.0,68,0.00,OVC,,0.00,612.0,WeatherDisplay:10.37,2013-06-19 15:37:00,
2013-06-19 10:42:00,74.9,62.8,30.07,South,180,1.1,4.6,66,0.00,OVC,,0.00,350.0,WeatherDisplay:10.37,2013-06-19 15:42:00,
2013-06-19 10:47:00,74.5,63.2,30.07,South,191,1.6,4.6,68,0.00,OVC,,0.00,626.0,WeatherDisplay:10.37,2013-06-19 15:47:00,
2013-06-19 10:52:00,74.7,63.4,30.06,South,187,0.8,3.5,68,0.00,OVC,,0.00,397.0,WeatherDisplay:10.37,2013-06-19 15:52:00,
2013-06-19 10:57:00,75.9,64.2,30.07,SSE,165,2.7,6.9,67,0.00,OVC,,0.00,675.0,WeatherDisplay:10.37,2013-06-19 15:57:00,
2013-06-19 11:02:00,75.6,63.4,30.06,South,174,1.4,3.5,66,0.00,BKN,,0.00,311.0,WeatherDisplay:10.37,2013-06-19 16:02:00,
2013-06-19 11:07:00,75.2,62.6,30.06,SSW,201,2.9,5.0,65,0.00,BKN,,0.00,512.0,WeatherDisplay:10.37,2013-06-19 16:07:00,
2013-06-19 11:12:00,76.0,63.4,30.06,SSW,204,1.3,4.0,65,0.00,BKN,,0.00,844.0,WeatherDisplay:10.37,2013-06-19 16:12:00,
2013-06-19 11:17:00,75.8,63.2,30.06,South,187,0.8,2.3,65,0.00,BKN,,0.00,383.0,WeatherDisplay:10.37,2013-06-19 16:17:00,
2013-06-19 11:22:00,75.8,63.6,30.06,South,187,2.1,4.0,66,0.00,BKN,,0.00,659.0,WeatherDisplay:10.37,2013-06-19 16:22:00,
2013-06-19 11:27:00,76.1,64.3,30.06,South,183,2.8,4.0,67,0.00,BKN,,0.00,334.0,WeatherDisplay:10.37,2013-06-19 16:27:00,
2013-06-19 11:32:00,76.1,63.5,30.06,South,179,0.6,3.5,65,0.00,BKN,,0.00,904.0,WeatherDisplay:10.37,2013-06-19 16:32:00,
2013-06-19 11:37:00,76.9,63.3,30.06,South,177,2.4,5.8,63,0.00,BKN,,0.00,905.0,WeatherDisplay:10.37,2013-06-19 16:37:00,
2013-06-19 11:42:00,77.9,64.7,30.06,SSW,193,0.4,3.5,64,0.00,BKN,,0.00,823.0,WeatherDisplay:10.37,2013-06-19 16:42:00,
2013-06-19 11:47:00,78.9,64.3,30.06,SSE,162,3.2,4.0,61,0.00,BKN,,0.00,882.0,WeatherDisplay:10.37,2013-06-19 16:47:00,
2013-06-19 11:52:00,79.1,63.5,30.06,SSW,204,2.4,6.0,59,0.00,BKN,,0.00,868.0,WeatherDisplay:10.37,2013-06-19 16:52:00,
2013-06-19 11:57:00,78.8,63.7,30.06,South,188,0.4,3.5,60,0.00,BKN,,0.00,844.0,WeatherDisplay:10.37,2013-06-19 16:57:00,
2013-06-19 12:02:00,79.9,63.3,30.05,West,271,1.5,3.5,57,0.00,BKN,,0.00,828.0,WeatherDisplay:10.37,2013-06-19 17:02:00,
2013-06-19 12:07:00,79.5,63.9,30.05,ENE,60,3.7,6.0,59,0.00,BKN,,0.00,835.0,WeatherDisplay:10.37,2013-06-19 17:07:00,
2013-06-19 12:12:00,79.1,64.0,30.05,South,190,2.9,6.9,60,0.00,BKN,,0.00,844.0,WeatherDisplay:10.37,2013-06-19 17:12:00,
2013-06-19 12:17:00,79.5,63.9,30.05,SE,139,2.1,6.9,59,0.00,BKN,,0.00,868.0,WeatherDisplay:10.37,2013-06-19 17:17:00,
2013-06-19 12:22:00,79.6,64.5,30.04,SSW,196,3.4,6.0,60,0.00,BKN,,0.00,877.0,WeatherDisplay:10.37,2013-06-19 17:22:00,
2013-06-19 12:27:00,80.4,63.8,30.04,SE,131,1.5,6.9,57,0.00,BKN,,0.00,858.0,WeatherDisplay:10.37,2013-06-19 17:27:00,
2013-06-19 12:32:00,81.1,64.9,30.04,South,182,4.3,5.0,58,0.00,BKN,,0.00,868.0,WeatherDisplay:10.37,2013-06-19 17:32:00,
2013-06-19 12:37:00,81.8,65.1,30.04,SW,227,1.0,4.6,57,0.00,BKN,,0.00,902.0,WeatherDisplay:10.37,2013-06-19 17:37:00,
2013-06-19 12:42:00,81.6,64.4,30.04,SSW,207,3.0,6.0,56,0.00,BKN,,0.00,856.0,WeatherDisplay:10.37,2013-06-19 17:42:00,
2013-06-19 12:47:00,82.2,64.4,30.03,South,181,2.7,6.0,55,0.00,BKN,,0.00,884.0,WeatherDisplay:10.37,2013-06-19 17:47:00,
2013-06-19 12:52:00,82.3,62.9,30.03,SSW,197,5.2,9.0,52,0.00,BKN,,0.00,900.0,WeatherDisplay:10.37,2013-06-19 17:52:00,
2013-06-19 12:57:00,80.8,63.1,30.03,SSE,162,2.1,8.1,55,0.00,BKN,,0.00,809.0,WeatherDisplay:10.37,2013-06-19 17:57:00,
2013-06-19 13:02:00,80.8,63.1,30.03,SSE,150,2.0,5.8,55,0.00,FEW,,0.00,847.0,WeatherDisplay:10.37,2013-06-19 18:02:00,
2013-06-19 13:07:00,81.5,63.8,30.03,South,182,1.2,4.0,55,0.00,FEW,,0.00,858.0,WeatherDisplay:10.37,2013-06-19 18:07:00,
2013-06-19 13:12:00,82.4,63.5,30.03,SSE,151,2.6,7.0,53,0.00,FEW,,0.00,867.0,WeatherDisplay:10.37,2013-06-19 18:12:00,
2013-06-19 13:17:00,82.1,63.3,30.03,ESE,123,3.6,8.0,53,0.00,FEW,,0.00,902.0,WeatherDisplay:10.37,2013-06-19 18:17:00,
2013-06-19 13:22:00,82.3,64.5,30.03,South,186,4.5,8.0,55,0.00,FEW,,0.00,884.0,WeatherDisplay:10.37,2013-06-19 18:22:00,
2013-06-19 13:27:00,84.1,63.5,30.03,South,175,6.3,8.0,50,0.00,FEW,,0.00,893.0,WeatherDisplay:10.37,2013-06-19 18:27:00,
2013-06-19 13:32:00,83.5,62.9,30.03,South,184,5.5,8.1,50,0.00,FEW,,0.00,868.0,WeatherDisplay:10.37,2013-06-19 18:32:00,
2013-06-19 13:37:00,83.9,63.3,30.03,ESE,113,1.4,5.8,50,0.00,FEW,,0.00,888.0,WeatherDisplay:10.37,2013-06-19 18:37:00,
2013-06-19 13:42:00,83.6,64.1,30.03,SSE,168,2.7,8.1,52,0.00,FEW,,0.00,847.0,WeatherDisplay:10.37,2013-06-19 18:42:00,
2013-06-19 13:47:00,84.2,64.7,30.02,South,179,4.0,7.0,52,0.00,FEW,,0.00,886.0,WeatherDisplay:10.37,2013-06-19 18:47:00,
2013-06-19 13:52:00,83.6,63.6,30.02,SSE,163,3.0,7.0,51,0.00,FEW,,0.00,868.0,WeatherDisplay:10.37,2013-06-19 18:52:00,
2013-06-19 13:57:00,84.0,65.0,30.02,South,188,2.4,6.0,53,0.00,FEW,,0.00,830.0,WeatherDisplay:10.37,2013-06-19 18:57:00,
2013-06-19 14:02:00,84.0,61.0,30.02,SSW,196,5.2,8.1,46,0.00,CLR,,0.00,875.0,WeatherDisplay:10.37,2013-06-19 19:02:00,
2013-06-19 14:07:00,83.5,62.3,30.02,South,180,3.5,8.0,49,0.00,CLR,,0.00,905.0,WeatherDisplay:10.37,2013-06-19 19:07:00,
2013-06-19 14:12:00,83.7,63.1,30.02,SSE,164,3.4,6.0,50,0.00,CLR,,0.00,891.0,WeatherDisplay:10.37,2013-06-19 19:12:00,
2013-06-19 14:17:00,83.8,62.0,30.02,South,182,1.5,5.8,48,0.00,CLR,,0.00,867.0,WeatherDisplay:10.37,2013-06-19 19:17:00,
2013-06-19 14:22:00,85.2,63.3,30.02,SE,146,2.5,5.0,48,0.00,CLR,,0.00,884.0,WeatherDisplay:10.37,2013-06-19 19:22:00,
2013-06-19 14:27:00,85.4,62.3,30.02,SW,217,3.1,7.0,46,0.00,CLR,,0.00,877.0,WeatherDisplay:10.37,2013-06-19 19:27:00,
2013-06-19 14:32:00,86.0,62.2,30.02,South,169,3.1,8.0,45,0.00,CLR,,0.00,882.0,WeatherDisplay:10.37,2013-06-19 19:32:00,
2013-06-19 14:37:00,84.6,61.5,30.02,South,173,2.8,5.0,46,0.00,CLR,,0.00,918.0,WeatherDisplay:10.37,2013-06-19 19:37:00,
2013-06-19 14:42:00,84.9,62.4,30.01,SE,127,2.1,6.9,47,0.00,CLR,,0.00,889.0,WeatherDisplay:10.37,2013-06-19 19:42:00,
2013-06-19 14:47:00,84.9,61.8,30.01,South,185,4.3,9.0,46,0.00,CLR,,0.00,912.0,WeatherDisplay:10.37,2013-06-19 19:47:00,
2013-06-19 14:52:00,84.3,62.5,30.01,SSE,163,1.2,3.5,48,0.00,CLR,,0.00,185.0,WeatherDisplay:10.37,2013-06-19 19:52:00,
2013-06-19 14:57:00,84.0,62.2,30.01,SSW,193,1.2,5.8,48,0.00,CLR,,0.00,909.0,WeatherDisplay:10.37,2013-06-19 19:57:00,
2013-06-19 15:02:00,84.6,61.5,30.01,East,101,4.8,7.0,46,0.00,FEW,,0.00,835.0,WeatherDisplay:10.37,2013-06-19 20:02:00,
2013-06-19 15:07:00,84.1,61.1,30.01,East,99,3.5,8.1,46,0.00,FEW,,0.00,355.0,WeatherDisplay:10.37,2013-06-19 20:07:00,
2013-06-19 15:12:00,84.7,62.2,30.01,SW,232,3.5,9.0,47,0.00,FEW,,0.00,986.0,WeatherDisplay:10.37,2013-06-19 20:12:00,
2013-06-19 15:17:00,85.8,63.2,30.00,South,180,6.2,10.0,47,0.00,FEW,,0.00,868.0,WeatherDisplay:10.37,2013-06-19 20:17:00,
2013-06-19 15:22:00,85.5,62.4,30.00,South,182,3.1,6.0,46,0.00,FEW,,0.00,772.0,WeatherDisplay:10.37,2013-06-19 20:22:00,
2013-06-19 15:27:00,84.8,62.3,30.00,North,350,4.6,9.2,47,0.00,FEW,,0.00,803.0,WeatherDisplay:10.37,2013-06-19 20:27:00,
2013-06-19 15:32:00,85.8,63.2,30.00,South,189,3.7,5.0,47,0.00,FEW,,0.00,793.0,WeatherDisplay:10.37,2013-06-19 20:32:00,
2013-06-19 15:37:00,86.0,62.2,30.00,South,174,3.1,6.0,45,0.00,FEW,,0.00,773.0,WeatherDisplay:10.37,2013-06-19 20:37:00,
2013-06-19 15:42:00,85.5,62.4,30.00,South,173,4.3,11.5,46,0.00,FEW,,0.00,719.0,WeatherDisplay:10.37,2013-06-19 20:42:00,
2013-06-19 15:47:00,85.5,63.0,30.00,SSW,205,1.9,6.9,47,0.00,FEW,,0.00,744.0,WeatherDisplay:10.37,2013-06-19 20:47:00,
2013-06-19 15:52:00,85.0,63.1,30.00,SW,226,2.8,8.1,48,0.00,FEW,,0.00,763.0,WeatherDisplay:10.37,2013-06-19 20:52:00,
2013-06-19 15:57:00,85.4,62.3,29.99,South,178,5.1,8.1,46,0.00,FEW,,0.00,731.0,WeatherDisplay:10.37,2013-06-19 20:57:00,
2013-06-19 16:02:00,85.4,61.6,29.99,South,175,5.1,11.5,45,0.00,CLR,,0.00,710.0,WeatherDisplay:10.37,2013-06-19 21:02:00,
2013-06-19 16:07:00,85.2,62.1,29.99,SSW,202,5.6,10.4,46,0.00,CLR,,0.00,708.0,WeatherDisplay:10.37,2013-06-19 21:07:00,
2013-06-19 16:12:00,85.7,63.8,29.99,ESE,117,2.6,5.0,48,0.00,CLR,,0.00,722.0,WeatherDisplay:10.37,2013-06-19 21:12:00,
2013-06-19 16:17:00,85.5,62.4,29.99,South,174,4.9,9.0,46,0.00,CLR,,0.00,693.0,WeatherDisplay:10.37,2013-06-19 21:17:00,
2013-06-19 16:22:00,85.6,62.4,29.99,South,180,2.4,5.8,46,0.00,CLR,,0.00,668.0,WeatherDisplay:10.37,2013-06-19 21:22:00,
2013-06-19 16:27:00,85.0,61.9,29.99,South,173,5.7,8.0,46,0.00,CLR,,0.00,659.0,WeatherDisplay:10.37,2013-06-19 21:27:00,
2013-06-19 16:32:00,84.9,62.4,29.99,South,179,2.0,6.9,47,0.00,CLR,,0.00,684.0,WeatherDisplay:10.37,2013-06-19 21:32:00,
2013-06-19 16:37:00,84.6,62.1,29.99,SSW,200,5.3,10.4,47,0.00,CLR,,0.00,675.0,WeatherDisplay:10.37,2013-06-19 21:37:00,
2013-06-19 16:42:00,85.0,63.1,29.99,SSW,206,2.3,6.9,48,0.00,CLR,,0.00,682.0,WeatherDisplay:10.37,2013-06-19 21:42:00,
2013-06-19 16:47:00,84.9,62.4,29.99,South,180,4.6,8.1,47,0.00,CLR,,0.00,163.0,WeatherDisplay:10.37,2013-06-19 21:47:00,
2013-06-19 16:52:00,84.6,62.7,29.99,South,174,3.3,5.0,48,0.00,CLR,,0.00,696.0,WeatherDisplay:10.37,2013-06-19 21:52:00,
2013-06-19 16:57:00,84.9,62.4,29.99,SSE,166,5.2,9.2,47,0.00,CLR,,0.00,575.0,WeatherDisplay:10.37,2013-06-19 21:57:00,
2013-06-19 17:02:00,84.2,62.4,29.98,SSE,165,4.1,7.0,48,0.00,FEW,,0.00,696.0,WeatherDisplay:10.37,2013-06-19 22:02:00,
2013-06-19 17:07:00,84.6,62.7,29.98,South,172,2.2,17.3,48,0.00,FEW,,0.00,592.0,WeatherDisplay:10.37,2013-06-19 22:07:00,
2013-06-19 17:12:00,85.3,63.4,29.98,SSE,166,3.0,7.0,48,0.00,FEW,,0.00,485.0,WeatherDisplay:10.37,2013-06-19 22:12:00,
2013-06-19 17:17:00,85.0,62.5,29.98,SSE,161,3.9,6.9,47,0.00,FEW,,0.00,555.0,WeatherDisplay:10.37,2013-06-19 22:17:00,
2013-06-19 17:22:00,84.8,62.3,29.98,SE,143,5.5,11.0,47,0.00,FEW,,0.00,563.0,WeatherDisplay:10.37,2013-06-19 22:22:00,
2013-06-19 17:27:00,84.5,62.7,29.98,SSW,202,3.9,7.0,48,0.00,FEW,,0.00,515.0,WeatherDisplay:10.37,2013-06-19 22:27:00,
2013-06-19 17:33:00,83.7,61.9,29.98,South,169,1.2,4.6,48,0.00,FEW,,0.00,246.0,WeatherDisplay:10.37,2013-06-19 22:33:00,
2013-06-19 17:38:00,83.5,63.5,29.98,South,177,2.6,5.8,51,0.00,FEW,,0.00,517.0,WeatherDisplay:10.37,2013-06-19 22:38:00,
2013-06-19 17:43:00,83.9,62.1,29.98,South,171,2.8,6.0,48,0.00,FEW,,0.00,438.0,WeatherDisplay:10.37,2013-06-19 22:43:00,
2013-06-19 17:48:00,84.7,62.8,29.98,South,180,2.4,6.9,48,0.00,FEW,,0.00,446.0,WeatherDisplay:10.37,2013-06-19 22:48:00,
2013-06-19 17:53:00,84.7,62.2,29.98,SSW,198,1.9,6.9,47,0.00,FEW,,0.00,371.0,WeatherDisplay:10.37,2013-06-19 22:53:00,
2013-06-19 17:58:00,84.5,63.2,29.98,South,187,1.9,7.0,49,0.00,FEW,,0.00,396.0,WeatherDisplay:10.37,2013-06-19 22:58:00,
2013-06-19 18:03:00,84.3,63.6,29.98,SSE,150,1.8,4.0,50,0.00,FEW,,0.00,387.0,WeatherDisplay:10.37,2013-06-19 23:03:00,
2013-06-19 18:08:00,84.2,61.8,29.98,South,179,2.5,8.1,47,0.00,FEW,,0.00,392.0,WeatherDisplay:10.37,2013-06-19 23:08:00,
2013-06-19 18:13:00,84.3,62.5,29.97,South,175,1.7,5.8,48,0.00,FEW,,0.00,397.0,WeatherDisplay:10.37,2013-06-19 23:13:00,
2013-06-19 18:18:00,84.4,62.0,29.97,South,171,4.4,8.0,47,0.00,FEW,,0.00,371.0,WeatherDisplay:10.37,2013-06-19 23:18:00,
2013-06-19 18:23:00,84.3,62.5,29.98,South,176,1.8,5.8,48,0.00,FEW,,0.00,357.0,WeatherDisplay:10.37,2013-06-19 23:23:00,
2013-06-19 18:28:00,84.2,61.8,29.97,South,180,1.2,2.3,47,0.00,FEW,,0.00,345.0,WeatherDisplay:10.37,2013-06-19 23:28:00,
2013-06-19 18:33:00,84.7,62.8,29.97,South,172,1.6,5.8,48,0.00,FEW,,0.00,323.0,WeatherDisplay:10.37,2013-06-19 23:33:00,
2013-06-19 18:38:00,84.4,63.2,29.97,SSE,168,3.3,5.0,49,0.00,FEW,,0.00,330.0,WeatherDisplay:10.37,2013-06-19 23:38:00,
2013-06-19 18:43:00,84.2,63.0,29.97,South,182,5.5,9.2,49,0.00,FEW,,0.00,202.0,WeatherDisplay:10.37,2013-06-19 23:43:00,
2013-06-19 18:48:00,83.9,62.7,29.97,SSE,163,2.5,4.0,49,0.00,FEW,,0.00,155.0,WeatherDisplay:10.37,2013-06-19 23:48:00,
2013-06-19 18:53:00,83.2,61.5,29.97,South,180,1.8,3.5,48,0.00,FEW,,0.00,109.0,WeatherDisplay:10.37,2013-06-19 23:53:00,
2013-06-19 18:58:00,82.9,62.4,29.97,South,179,1.1,3.5,50,0.00,FEW,,0.00,281.0,WeatherDisplay:10.37,2013-06-19 23:58:00,
2013-06-19 19:03:00,83.1,62.5,29.97,SSE,166,2.2,4.0,50,0.00,CLR,,0.00,234.0,WeatherDisplay:10.37,2013-06-20 00:03:00,
2013-06-19 19:08:00,83.3,63.3,29.97,South,170,0.9,3.5,51,0.00,CLR,,0.00,197.0,WeatherDisplay:10.37,2013-06-20 00:08:00,
2013-06-19 19:13:00,83.2,62.6,29.97,SSE,162,1.2,3.5,50,0.00,CLR,,0.00,120.0,WeatherDisplay:10.37,2013-06-20 00:13:00,
2013-06-19 19:18:00,82.6,63.7,29.97,SSE,165,0.1,2.3,53,0.00,CLR,,0.00,120.0,WeatherDisplay:10.37,2013-06-20 00:18:00,
2013-06-19 19:23:00,82.2,62.8,29.97,South,188,2.4,4.0,52,0.00,CLR,,0.00,114.0,WeatherDisplay:10.37,2013-06-20 00:23:00,
2013-06-19 19:28:00,81.8,63.0,29.97,WSW,251,1.6,3.5,53,0.00,CLR,,0.00,153.0,WeatherDisplay:10.37,2013-06-20 00:28:00,
2013-06-19 19:33:00,81.9,63.6,29.97,SE,145,1.1,3.0,54,0.00,CLR,,0.00,137.0,WeatherDisplay:10.37,2013-06-20 00:33:00,
2013-06-19 19:38:00,81.8,63.5,29.97,SSW,200,1.1,3.5,54,0.00,CLR,,0.00,116.0,WeatherDisplay:10.37,2013-06-20 00:38:00,
2013-06-19 19:43:00,81.6,63.3,29.97,SSE,167,1.8,3.5,54,0.00,CLR,,0.00,93.0,WeatherDisplay:10.37,2013-06-20 00:43:00,
2013-06-19 19:48:00,80.8,63.1,29.97,South,178,1.7,3.5,55,0.00,CLR,,0.00,79.0,WeatherDisplay:10.37,2013-06-20 00:48:00,
2013-06-19 19:53:00,80.3,63.2,29.97,South,178,1.0,2.3,56,0.00,CLR,,0.00,62.0,WeatherDisplay:10.37,2013-06-20 00:53:00,
2013-06-19 19:58:00,79.9,62.8,29.97,SSE,162,1.4,3.5,56,0.00,CLR,,0.00,58.0,WeatherDisplay:10.37,2013-06-20 00:58:00,
2013-06-19 20:03:00,79.6,62.5,29.97,ESE,104,1.1,3.5,56,0.00,FEW,,0.00,46.0,WeatherDisplay:10.37,2013-06-20 01:03:00,
2013-06-19 20:08:00,79.3,62.7,29.97,SSW,193,1.2,3.5,57,0.00,FEW,,0.00,37.0,WeatherDisplay:10.37,2013-06-20 01:08:00,
2013-06-19 20:13:00,78.9,62.4,29.97,SSW,198,0.8,3.5,57,0.00,FEW,,0.00,32.0,WeatherDisplay:10.37,2013-06-20 01:13:00,
2013-06-19 20:18:00,78.4,62.4,29.97,ESE,120,0.8,2.3,58,0.00,FEW,,0.00,28.0,WeatherDisplay:10.37,2013-06-20 01:18:00,
2013-06-19 20:23:00,78.1,61.6,29.97,South,186,0.9,3.5,57,0.00,FEW,,0.00,25.0,WeatherDisplay:10.37,2013-06-20 01:23:00,
2013-06-19 20:28:00,77.9,61.9,29.97,South,169,0.7,2.3,58,0.00,FEW,,0.00,23.0,WeatherDisplay:10.37,2013-06-20 01:28:00,
2013-06-19 20:33:00,77.5,62.0,29.97,South,171,1.5,3.5,59,0.00,FEW,,0.00,21.0,WeatherDisplay:10.37,2013-06-20 01:33:00,
2013-06-19 20:38:00,77.3,61.9,29.97,SSW,198,0.9,2.3,59,0.00,FEW,,0.00,18.0,WeatherDisplay:10.37,2013-06-20 01:38:00,
2013-06-19 20:43:00,76.9,61.5,29.97,SSW,198,1.2,2.3,59,0.00,FEW,,0.00,16.0,WeatherDisplay:10.37,2013-06-20 01:43:00,
2013-06-19 20:48:00,76.5,61.6,29.97,SSW,194,0.8,3.5,60,0.00,FEW,,0.00,12.0,WeatherDisplay:10.37,2013-06-20 01:48:00,
2013-06-19 20:53:00,76.3,61.9,29.97,SSW,194,0.5,2.3,61,0.00,FEW,,0.00,12.0,WeatherDisplay:10.37,2013-06-20 01:53:00,
2013-06-19 20:58:00,76.1,61.7,29.97,SSE,167,1.5,3.5,61,0.00,FEW,,0.00,9.0,WeatherDisplay:10.37,2013-06-20 01:58:00,
2013-06-19 21:03:00,75.8,61.8,29.97,SSE,167,0.5,2.0,62,0.00,CLR,,0.00,5.0,WeatherDisplay:10.37,2013-06-20 02:03:00,
2013-06-19 21:08:00,75.6,61.7,29.97,South,169,0.2,2.3,62,0.00,CLR,,0.00,0.0,WeatherDisplay:10.37,2013-06-20 02:08:00,
2013-06-19 21:13:00,75.4,61.5,29.98,South,169,1.0,2.3,62,0.00,CLR,,0.00,0.0,WeatherDisplay:10.37,2013-06-20 02:13:00,
2013-06-19 21:18:00,75.0,61.5,29.98,South,169,0.4,2.3,63,0.00,CLR,,0.00,0.0,WeatherDisplay:10.37,2013-06-20 02:18:00,
2013-06-19 21:23:00,74.8,61.4,29.98,South,172,1.5,4.0,63,0.00,CLR,,0.00,0.0,WeatherDisplay:10.37,2013-06-20 02:23:00,
2013-06-19 21:28:00,74.6,61.6,29.98,South,170,1.4,3.5,64,0.00,CLR,,0.00,0.0,WeatherDisplay:10.37,2013-06-20 02:28:00,
2013-06-19 21:33:00,74.4,61.4,29.98,South,180,0.5,3.0,64,0.00,CLR,,0.00,0.0,WeatherDisplay:10.37,2013-06-20 02:33:00,
2013-06-19 21:38:00,74.3,61.3,29.98,SSE,157,0.8,2.3,64,0.00,CLR,,0.00,0.0,WeatherDisplay:10.37,2013-06-20 02:38:00,
2013-06-19 21:43:00,74.1,61.1,29.98,SSE,158,0.6,3.0,64,0.00,CLR,,0.00,0.0,WeatherDisplay:10.37,2013-06-20 02:43:00,
2013-06-19 21:48:00,73.9,61.0,29.98,South,179,1.3,3.5,64,0.00,CLR,,0.00,0.0,WeatherDisplay:10.37,2013-06-20 02:48:00,
2013-06-19 21:53:00,73.9,61.0,29.98,South,186,0.3,2.3,64,0.00,CLR,,0.00,0.0,WeatherDisplay:10.37,2013-06-20 02:53:00,
2013-06-19 21:58:00,73.8,60.9,29.98,South,185,0.8,2.3,64,0.00,CLR,,0.00,0.0,WeatherDisplay:10.37,2013-06-20 02:58:00,
2013-06-19 22:03:00,73.5,61.0,29.99,South,180,0.8,2.3,65,0.00,CLR,,0.00,0.0,WeatherDisplay:10.37,2013-06-20 03:03:00,
2013-06-19 22:08:00,73.3,60.8,29.99,South,180,0.8,2.3,65,0.00,CLR,,0.00,0.0,WeatherDisplay:10.37,2013-06-20 03:08:00,
2013-06-19 22:13:00,73.2,60.7,29.99,South,179,0.4,2.3,65,0.00,CLR,,0.00,0.0,WeatherDisplay:10.37,2013-06-20 03:13:00,
2013-06-19 22:18:00,73.0,60.5,29.99,South,179,1.3,3.0,65,0.00,CLR,,0.00,0.0,WeatherDisplay:10.37,2013-06-20 03:18:00,
2013-06-19 22:23:00,72.9,60.9,29.99,South,179,1.0,2.3,66,0.00,CLR,,0.00,0.0,WeatherDisplay:10.37,2013-06-20 03:23:00,
2013-06-19 22:28:00,72.8,60.8,30.00,South,178,1.1,3.5,66,0.00,CLR,,0.00,0.0,WeatherDisplay:10.37,2013-06-20 03:28:00,
2013-06-19 22:33:00,72.5,60.9,29.99,South,181,0.5,3.5,67,0.00,CLR,,0.00,0.0,WeatherDisplay:10.37,2013-06-20 03:33:00,
2013-06-19 22:38:00,72.4,60.8,29.99,South,178,1.3,2.3,67,0.00,CLR,,0.00,0.0,WeatherDisplay:10.37,2013-06-20 03:38:00,
2013-06-19 22:43:00,72.5,60.5,29.99,South,174,0.6,1.2,66,0.00,CLR,,0.00,0.0,WeatherDisplay:10.37,2013-06-20 03:43:00,
2013-06-19 22:48:00,72.3,60.7,29.99,South,188,0.6,2.0,67,0.00,CLR,,0.00,0.0,WeatherDisplay:10.37,2013-06-20 03:48:00,
2013-06-19 22:53:00,72.3,60.7,29.99,SSW,208,0.2,2.3,67,0.00,CLR,,0.00,0.0,WeatherDisplay:10.37,2013-06-20 03:53:00,
2013-06-19 22:58:00,72.2,60.6,29.99,SE,137,0.0,1.2,67,0.00,CLR,,0.00,0.0,WeatherDisplay:10.37,2013-06-20 03:58:00,
2013-06-19 23:01:00,72.1,60.5,29.99,SE,137,0.0,0.0,67,0.00,CLR,,0.00,0.0,WeatherDisplay:10.37,2013-06-20 04:01:00,
2013-06-19 23:02:00,72.0,60.4,29.99,SSE,164,0.9,2.3,67,0.00,CLR,,0.00,0.0,WeatherDisplay:10.37,2013-06-20 04:02:00,
2013-06-19 23:05:00,72.1,60.5,30.00,SSE,164,0.7,2.3,67,0.00,CLR,,0.00,0.0,WeatherDisplay:10.37,2013-06-20 04:05:00,
2013-06-19 23:08:00,72.0,60.4,30.00,SSE,167,0.6,2.3,67,0.00,CLR,,0.00,0.0,WeatherDisplay:10.37,2013-06-20 04:08:00,
2013-06-19 23:11:00,72.0,60.4,29.99,South,185,1.4,3.5,67,0.00,CLR,,0.00,0.0,WeatherDisplay:10.37,2013-06-20 04:11:00,
2013-06-19 23:16:00,72.0,60.4,30.00,South,188,0.8,2.3,67,0.00,CLR,,0.00,0.0,WeatherDisplay:10.37,2013-06-20 04:16:00,
2013-06-19 23:21:00,71.8,60.2,30.00,South,188,0.4,2.3,67,0.00,CLR,,0.00,0.0,WeatherDisplay:10.37,2013-06-20 04:21:00,
2013-06-19 23:26:00,71.7,60.6,30.00,South,186,1.1,3.5,68,0.00,CLR,,0.00,0.0,WeatherDisplay:10.37,2013-06-20 04:26:00,
2013-06-19 23:31:00,71.7,60.6,30.00,South,185,1.1,3.5,68,0.00,CLR,,0.00,0.0,WeatherDisplay:10.37,2013-06-20 04:31:00,
2013-06-19 23:36:00,71.7,60.6,30.00,South,171,0.5,3.5,68,0.00,CLR,,0.00,0.0,WeatherDisplay:10.37,2013-06-20 04:36:00,
2013-06-19 23:41:00,71.5,60.4,29.99,South,180,0.9,3.5,68,0.00,CLR,,0.00,0.0,WeatherDisplay:10.37,2013-06-20 04:41:00,
2013-06-19 23:46:00,71.6,60.5,29.99,SE,135,1.1,3.5,68,0.00,CLR,,0.00,0.0,WeatherDisplay:10.37,2013-06-20 04:46:00,
2013-06-19 23:51:00,71.6,60.5,29.99,South,183,2.4,4.0,68,0.00,CLR,,0.00,0.0,WeatherDisplay:10.37,2013-06-20 04:51:00,
2013-06-19 23:56:00,71.6,60.5,29.99,SE,139,1.2,3.0,68,0.00,CLR,,0.00,0.0,WeatherDisplay:10.37,2013-06-20 04:56:00,